Jackpot

Texas Poker Multi Jackpot System

Kini Telah hadir Jackpot SUPER ROYAL FLUSH

Kini Telah hadir Jackpot 2000 (khusus table VIP keatas).

Ikutilah global jackpot yang tersedia di system kami, dengan system jackpot terbaru dan pertama di indonesia, anda dapat membeli jackpot dengan harga 100 rupiah saja dan menangkan hadiahnya hingga puluhan juta rupiah.

Jackpot bukanlah suatu keharusan untuk dibeli, namun kami memberikan suatu fitur tambahan untuk member tercinta dari www.nikitapoker.com.

Terdapat tiga pilihan harga jackpot yang bisa anda beli yaitu :100,500,1000 dan 2000(khusus table VIP Keatas) rupiah.

Hadiah dari Multi jackpot system www.nikitapoker.com

  1. full house x 10 harga jackpot yang anda beli.
      (contoh:anda membeli 1000 maka:1000 X10 = 10.000)
  2. four of kind x 250 harga jackpot yang anda beli
      (contoh:anda membeli 1000 maka:1000 X250 = 250.000)
  3. Straight flush x 1200
      (contoh:anda membeli 1000 maka:1000 X1200 = 1.200.000)
  4. Royal flush x 10000 harga jackpot yang anda beli
      (contoh:anda membeli 1000 maka:1000 X10000 = 10.000.000)
  5. SUPER ROYAL FLUSH x 30000 harga jackpot yang anda beli
      (contoh:anda membeli 1000 maka:1000 X30000 = 30.000.000)

Kondisi kartu

  1. full house adalah kondisi kartu dimana kartu anda dan kartu tengah dengan total 7 kartu bisa mendapatkan nilai 5 kartu dengan kombinasi 1 tris(three of kind) dan 1 pair, contoh 3 kartu 10 dan 2 kartu 5
  2. Four of kind adalah kondisi kartu dimana kartu anda dan kartu tengah dengan total 7 kartu bisa mendapatkan nilai 5 kartu dengan kombinasi 4 kartu yang sama jumlah dan 1 kartu apapun juga contoh anda mendapatkan 4 buah kartu angka 3 dan 1 kartu apapun.
  3. Staright flush adalah kondisi kartu dimana kartu anda dan kartu tengah dengan total 7 kartu bisa mendapatkan nilai 5 kartu dengan kombinasi seri / staright dengan kembang yang sama contoh : urutan kartu dari angka 5, 6, 7, 8 , 9 10 dengan kembang yg sama misalnya as hati
  4. Royal flush adalah kondisi kartu dimana kartu anda dan kartu tengah dengan total 7 kartu bisa mendapatkan nilai 5 kartu dengan kombinasi seri / staright dengan kembang yang sama tetapi kartu tersebut haruslah dimulai dari 10. contoh 10, Queen, Jack, King dan aces dengan kembang yang sama
  5. Super Royal flush adalah kondisi kartu dimana Kedua kartu anda digabung dengan 3 kartu pertama meja haruslah royal flush. contoh kartu anda 10,Queen kembang sama dan 3 kartu pertama meja adalah Jack, King dan aces dengan kembang yang sama

Demikian adalah penjelasan dari Multi Jackpot www.nikitapoker.com terima kasih dan selamat bermain salam hoki dari kami

Texas Poker Jackpot Winner

TOP SUPER ROYAL FLUSH
No.TanggalNamaPriceWin
121/07 02:20YOKOKLENSuper Royal flush1,500,000
221/07 00:26RIKACELL11Super Royal flush3,000,000
321/07 00:08ANKAR2018Super Royal flush6,000,000
421/07 00:07GACIEL1988Super Royal flush15,000,000
520/07 23:44KEKASIIHKUSuper Royal flush30,000,000
TOP ROYAL FLUSH
No.TanggalNamaPriceWin
121/07 06:29K0L3NK88Royal flush2,000,000
221/07 06:23KIMSALVE30Royal flush10,000,000
321/07 06:05AN75Z401MKRoyal flush2,000,000
421/07 05:12NDX9999Royal flush10,000,000
521/07 04:59PRASANGKA1Royal flush5,000,000
TOP STRAIGHT FLUSH
No.TanggalNamaPriceWin
121/07 06:5677___77Straight Flush120,000
221/07 06:55TEMPIK01Straight Flush240,000
321/07 06:54BAYDAR888Straight Flush240,000
421/07 06:50TONGG0S87Straight Flush240,000
521/07 06:49DWBTHON194Straight Flush600,000
LATEST JACKPOT
No.TanggalNamaPriceWin
121/07 06:58MANGSUGESTFull House2,000
221/07 06:57KETE11Full House10,000
321/07 06:57CELIND06Full House500
421/07 06:57DIODEWAFull House2,000
521/07 06:57WAGABOYFull House2,000
621/07 06:57DOLINGAFull House2,000
721/07 06:57UDINGEMBOKFull House2,000
821/07 06:57NANDAYOHFour Of A Kind125,000
921/07 06:57MVP805Full House2,000
1021/07 06:57ZR9IRPBKP7Four Of A Kind250,000
1121/07 06:57MONKEY989Full House2,000
1221/07 06:57G4RPU_4S3KFull House5,000
1321/07 06:57CACING_3Full House2,000
1421/07 06:57LUCKY123_Full House2,000
1521/07 06:57CB77BET098Full House2,000
1621/07 06:57WIWID188Full House2,000
1721/07 06:57B0CAH77Full House1,000
1821/07 06:57DGNASSA24Full House1,000
1921/07 06:57BINA577Full House2,000
2021/07 06:57TOMPUNFull House5,000
2121/07 06:57WQIEWQKO99Full House10,000
2221/07 06:57PL4YER30Full House10,000
2321/07 06:57BANDEMPO88Full House10,000
2421/07 06:57ANIS8596Full House5,000
2521/07 06:57FLIRT99Four Of A Kind125,000
2621/07 06:57JHAWA99Full House500
2721/07 06:56SBX9999Full House5,000
2821/07 06:56PUKI34Full House2,000
2921/07 06:56JWPSAGALAFull House5,000
3021/07 06:56WISMILAK77Full House5,000
3121/07 06:56DOK73Full House10,000
3221/07 06:56NDOL295Full House10,000
3321/07 06:56ALMEL11Full House10,000
3421/07 06:56KATAK73Full House10,000
3521/07 06:56SYEET4SFull House2,000
3621/07 06:56MV363766Full House5,000
3721/07 06:56TOPKCAJ99Full House1,000
3821/07 06:56ICAL214Full House1,000
3921/07 06:56BSB25TUU2RFull House10,000
4021/07 06:56MDRSHKEER02Full House10,000
4121/07 06:56PAKITIKFull House2,000
4221/07 06:56P3ND05_Full House2,000
4321/07 06:56RE220410Four Of A Kind125,000
4421/07 06:56PIRLI80Four Of A Kind500,000
4521/07 06:56LUCINTA35Full House1,000
4621/07 06:56BH0TEM28Four Of A Kind125,000
4721/07 06:56STARLA34Full House500
4821/07 06:56BHONTOT08Full House5,000
4921/07 06:56RABI19Full House5,000
5021/07 06:56HADIGAL01Full House5,000

Domino Multi Jackpot System

Ikutilah global jackpot yang tersedia di system kami, dengan system jackpot terbaru dan pertama di indonesia, anda dapat membeli jackpot dengan harga 100 rupiah saja dan menangkan hadiahnya hingga puluhan juta rupiah.

Jackpot bukanlah suatu keharusan untuk dibeli, namun kami memberikan suatu fitur tambahan untuk member tercinta dari www.nikitapoker.com.

Terdapat tiga pilihan harga jackpot yang bisa anda beli yaitu :100,500 dan 1000 rupiah.

Hadiah dari Multi jackpot system www.nikitapoker.com

  1. Murni Kecil x 50 harga jackpot yang anda beli.
      (contoh:anda membeli 1000 maka:1000 X 50 = 50.000)
  2. Murni Besar x 50 harga jackpot yang anda beli
      (contoh:anda membeli 1000 maka:1000 X 50 = 50.000)
  3. BALAK x 100 harga jackpot yang anda beli
      (contoh:anda membeli 1000 maka:1000 X 100 = 100.000)
  4. ENAM DEWA x 6666 harga jackpot yang anda beli
      (contoh:anda membeli 1000 maka:1000 X 6666 = 6.666.000)

Demikian adalah penjelasan dari Multi Jackpot www.nikitapoker.com terima kasih dan selamat bermain salam hoki dari kami

Domino Jackpot Winner

TOP ENAM DEWA
No.TanggalNamaPriceWin
121/07 01:22GARANG6666murni enam666,600
220/07 23:52BONG023murni enam6,666,000
320/07 23:19ACAIYHAHmurni enam6,666,000
420/07 22:40ANDREEW80murni enam6,666,000
520/07 21:10SNI53447murni enam666,600
TOP BALAK
No.TanggalNamaPriceWin
121/07 06:54DELLUbalak10,000
221/07 06:54SARDADU17balak50,000
321/07 06:50TAMI012balak100,000
421/07 06:47MENYUNSURObalak50,000
521/07 06:39JRENGEZbalak10,000
LATEST JACKPOT
No.TanggalNamaPriceWin
121/07 06:57UWOK1213murni besar50,000
221/07 06:57B3JOO7murni kecil50,000
321/07 06:56JOESUKSESmurni besar5,000
421/07 06:56MEGALOMAN9murni kecil50,000
521/07 06:56FE03758Amurni kecil5,000
621/07 06:55TASHIMmurni kecil50,000
721/07 06:55EMANEKOKmurni besar50,000
821/07 06:54DELLUbalak10,000
921/07 06:54SARDADU17balak50,000
1021/07 06:54ABAYOS99murni kecil50,000
1121/07 06:54RAYA1313murni besar25,000
1221/07 06:51SEV77lucky9950,000
1321/07 06:50TAMI012balak100,000
1421/07 06:50AADRBAAD25murni besar50,000
1521/07 06:50IKBALVE999murni kecil25,000
1621/07 06:49KECUK26murni kecil25,000
1721/07 06:48WIRDES1712murni kecil5,000
1821/07 06:48JIETOE88murni kecil50,000
1921/07 06:47MULYA90murni besar50,000
2021/07 06:47MENYUNSURObalak50,000
2121/07 06:47FA_JAR_99lucky9910,000
2221/07 06:45GADIS0916murni besar50,000
2321/07 06:42BARRE55murni kecil50,000
2421/07 06:40KRISTAL06murni kecil5,000
2521/07 06:39JRENGEZbalak10,000
2621/07 06:39ALINE20murni kecil25,000
2721/07 06:38KIKIW39murni besar50,000
2821/07 06:37D2A0AAF7murni besar25,000
2921/07 06:37D2A0AAF7murni besar25,000
3021/07 06:36ABAYOS99murni besar50,000
3121/07 06:36EFICK11balak100,000
3221/07 06:35TOMPUNbalak50,000
3321/07 06:35BR4NBRYNbalak100,000
3421/07 06:35BLIZLOVE24murni kecil50,000
3521/07 06:35CIMENGmurni besar50,000
3621/07 06:33ZKL0AY4HBEmurni besar25,000
3721/07 06:33TAMI012murni kecil50,000
3821/07 06:32ABON09murni kecil50,000
3921/07 06:32DWBTAHAI98murni besar25,000
4021/07 06:31KIKIW39murni kecil50,000
4121/07 06:30TAMI012murni besar50,000
4221/07 06:28BILABONG77murni besar50,000
4321/07 06:27JALANGARbalak10,000
4421/07 06:26JRENGEZmurni kecil5,000
4521/07 06:24LPClucky992,500
4621/07 06:23EMON168murni besar50,000
4721/07 06:23ANDI101014murni kecil50,000
4821/07 06:22MGELIK9murni besar50,000
4921/07 06:22PAKUCUN99murni besar50,000
5021/07 06:21KENTHI11lucky9950,000

Ceme Multi Jackpot System

Jackpot dilihat dari gabungan kartu pemain dengan kartu bandar. Bandar harus membeli jackpot sebanyak jumlah player yang sedang duduk. Sebagai contoh bila terdapat 3 pemain duduk bermain, dan bandar memutuskan untuk membeli jackpot Rp 1.000, maka pada periode tersebut bandar akan membeli jackpot sebanyak 3xRp1.000 = Rp3.000.

Jackpot bukanlah suatu keharusan untuk dibeli, namun kami memberikan suatu fitur tambahan untuk member tercinta dari www.nikitapoker.com.

Terdapat tiga pilihan harga jackpot yang bisa anda beli yaitu :100,500 dan 1000 rupiah.

Hadiah dari Multi jackpot system www.nikitapoker.com

  1. Murni Kecil x 50 harga jackpot yang anda beli.
      (contoh:anda membeli 1000 maka:1000 X 50 = 50.000)
  2. Murni Besar x 50 harga jackpot yang anda beli
      (contoh:anda membeli 1000 maka:1000 X 50 = 50.000)
  3. BALAK x 200 harga jackpot yang anda beli
      (contoh:anda membeli 1000 maka:1000 X 200 = 200.000)
  4. ENAM DEWA x 6666 harga jackpot yang anda beli
      (contoh:anda membeli 1000 maka:1000 X 6666 = 6.666.000)

Demikian adalah penjelasan dari Multi Jackpot www.nikitapoker.com terima kasih dan selamat bermain salam hoki dari kami

Ceme Jackpot Winner

TOP ENAM DEWA
No.TanggalNamaPriceWin
121/07 06:14RAJEK04murni enam6,666,000
221/07 06:14CHOLISI33murni enam666,600
321/07 05:23ATHECAmurni enam666,600
421/07 05:15S4RY24murni enam6,666,000
521/07 05:15KJMK0N2G6Wmurni enam6,666,000
TOP BALAK
No.TanggalNamaPriceWin
121/07 06:57T4DJADUL99balak200,000
221/07 06:55MK_12345balak200,000
321/07 06:55CHIENKbalak200,000
421/07 06:54BERE8510balak200,000
521/07 06:53LK4DBIMA1973balak20,000
LATEST JACKPOT
No.TanggalNamaPriceWin
121/07 06:57T4DJADUL99balak200,000
221/07 06:57VIGASmurni kecil25,000
321/07 06:57ELANKK14murni kecil50,000
421/07 06:57K3N4R00Kmurni kecil50,000
521/07 06:57YMAS99murni kecil50,000
621/07 06:57K3N4R00Kmurni kecil50,000
721/07 06:56DVD9999murni kecil50,000
821/07 06:56VIGASmurni kecil25,000
921/07 06:56M4KTHOmurni kecil25,000
1021/07 06:56KIPODOLAmurni kecil50,000
1121/07 06:56TAPAKMACANmurni besar25,000
1221/07 06:56ZARGOT0809murni besar50,000
1321/07 06:55YIIPOONmurni kecil5,000
1421/07 06:55HELLA21murni besar50,000
1521/07 06:55MARITUN12murni besar50,000
1621/07 06:55MK_12345balak200,000
1721/07 06:55CHIENKbalak200,000
1821/07 06:55WALISOONGOmurni kecil50,000
1921/07 06:55QMOENKPELOmurni kecil50,000
2021/07 06:54BERE8510murni kecil50,000
2121/07 06:54BERE8510balak200,000
2221/07 06:54QQEDMARmurni besar50,000
2321/07 06:54SERUNTUL26murni kecil50,000
2421/07 06:54FANSA99murni besar50,000
2521/07 06:54TOE666murni kecil50,000
2621/07 06:54COENG007murni kecil5,000
2721/07 06:54ROY08murni besar50,000
2821/07 06:54MAILAN08murni besar5,000
2921/07 06:54OCHID77murni kecil5,000
3021/07 06:54WALISOONGOmurni besar50,000
3121/07 06:549GNHISN57Cmurni besar50,000
3221/07 06:54B4L4CK99murni kecil50,000
3321/07 06:54MABOKAOmurni kecil25,000
3421/07 06:54MATTT90murni besar25,000
3521/07 06:53CIKES66murni kecil50,000
3621/07 06:53LK4DBIMA1973balak20,000
3721/07 06:53DOGLOAMOmurni kecil25,000
3821/07 06:53KANGIHINmurni besar25,000
3921/07 06:53LAMPARD46murni besar5,000
4021/07 06:53CHOERUL338murni besar50,000
4121/07 06:53MSYAFIQ1murni besar50,000
4221/07 06:53RENGGUTmurni kecil50,000
4321/07 06:53ICAN30murni kecil50,000
4421/07 06:5310JT_AJALAmurni kecil50,000
4521/07 06:52BULL_77murni besar50,000
4621/07 06:52LB992279murni besar50,000
4721/07 06:52MANCIT87murni kecil5,000
4821/07 06:52TOMJERbalak200,000
4921/07 06:52BUYA1223balak200,000
5021/07 06:52K3N4R00Kbalak200,000